sat.trackr.live / text

‹ back to catalog

JILIN-1 GAOFEN 3E

NORAD 46457 · 2020-065D

PAYLOAD ACTIVE UNKNOWN

§ Identity

Operator
Country
PRC
Launch date
2020-09-15
Launch site
SEAL
Launch vehicle
Mass (kg)
RCS (m²)

External: N2YO · Heavens-Above · Gunter

§ Orbital elements

Epoch: 2026-09-20T02:43:13.999008Z

Period
91.24 min
Inclination
97.2076°
Eccentricity
0.0009266
Mean motion
15.78247934 rev/d
Perigee alt
329.2 km
Apogee alt
341.6 km
Semi-major
6,713.5 km
B*
6.0759e-4
RAAN
318.7552°
Arg perigee
160.6122°
Mean anomaly
199.5500°
Rev number
33,465

§ Raw data

JILIN-1 GAOFEN 3E1 46457U 20065D   26263.11335647  .00105051  00000+0  60759-3 0  99992 46457  97.2076 318.7552 0009266 160.6122 199.5500 15.78247934334651

JSON: /api/v1/satellites/46457 · /tle

For live sub-satellite position, see the globe view (requires WebGL).

§ Visibility from observer

Set your observer location to see the next 7 days of passes ≥ 10°. The values pass through the URL so the page stays shareable.

No JS? Fill the form by hand. The geolocation button needs JavaScript.

§ Radio — SatNOGS DB

ModeDescriptionDownlinkUplink
BPSK Jillin Mysterious Pip 1.616 GHz

1 transmitter · refreshed weekly from db.satnogs.org